Akron Canton, OH

1:51 PM EDT on September 20, 2017 (GMT -0400)
Akron-Canton Regional

Weather History for KCAK - November, 2012

Change the Weather History Date:

Sunday, November 11, 2012

  Actual Average Record
Temperature  
Mean Temperature 58 °F 43 °F  
Max Temperature 68 °F 51 °F 72 °F (1915)
Min Temperature 47 °F 36 °F 18 °F (1957)
Degree Days  
Heating Degree Days 7 22  
Month to date heating degree days 264 220  
Since 1 July heating degree days 799 775  
Cooling Degree Days 0 0  
Month to date cooling degree days 0 0  
Year to date cooling degree days 1046 652  
Growing Degree Days 7 (Base 50)    
Moisture  
Dew Point 34 °F    
Average Humidity 47    
Maximum Humidity 61    
Minimum Humidity 32    
Precipitation  
Precipitation 0.00 in 0.10 in 0.71 in (1983)
Month to date precipitation 0.23 1.17  
Year to date precipitation 33.20 34.65  
Snow  
Snow 0.00 in 0.10 in - ()
Month to date snowfall T 0.7  
Since 1 July snowfall T 1.1  
Since 1 September snowfall T 1.1  
Snow Depth 0.00 in    
Sea Level Pressure  
Sea Level Pressure 30.22 in    
Wind  
Wind Speed 12 mph (South)    
Max Wind Speed 24 mph    
Max Gust Speed 31 mph    
Visibility 9 miles    
Events      
T = Trace of Precipitation, MM = Missing Value Source: NWS Daily Summary

Daily Weather History Graph

Daily Weather History Graph

Search for Another Location

Airport or City:

Trip Planner

Search our weather history database for the weather conditions in past years. The results will help you decide how hot, cold, wet, or windy it might be!

Date:

Astronomy

Nov. 11, 2012 Rise Set
Actual Time 7:08 AM EST 5:10 PM EST
Civil Twilight 6:39 AM EST 5:39 PM EST
Nautical Twilight 6:06 AM EST 6:12 PM EST
Astronomical Twilight 5:34 AM EST 6:44 PM EST
Moon 4:20 AM EST (11/11) 3:33 PM EST (11/11)
Length of Visible Light 10h 59m
Length of Day
10h 01m
Waning Crescent, 7% of the Moon is Illuminated
Nov 11
Waning Crescent
Nov 13
New
Nov 20
First Quarter
Nov 28
Full
Dec 6
Last Quarter

Hourly Weather History & Observations

Time (EST) Temp. Dew Point Humidity Pressure Visibility Wind Dir Wind Speed Gust Speed Precip Events Conditions
12:51 AM 53.1 °F 36.0 °F 52% 30.19 in 10.0 mi South 8.1 mph - N/A   Partly Cloudy
1:51 AM 52.0 °F 36.0 °F 54% 30.19 in 10.0 mi South 10.4 mph - N/A   Partly Cloudy
2:51 AM 50.0 °F 35.1 °F 57% 30.20 in 10.0 mi South 8.1 mph - N/A   Partly Cloudy
3:51 AM 48.9 °F 35.1 °F 59% 30.22 in 10.0 mi South 6.9 mph - N/A   Clear
4:51 AM 48.9 °F 34.0 °F 56% 30.24 in 10.0 mi South 6.9 mph - N/A   Clear
5:51 AM 48.9 °F 34.0 °F 56% 30.27 in 10.0 mi South 6.9 mph - N/A   Clear
6:51 AM 50.0 °F 33.1 °F 52% 30.29 in 10.0 mi SSW 6.9 mph - N/A   Partly Cloudy
7:51 AM 51.1 °F 35.1 °F 54% 30.30 in 9.0 mi SSW 6.9 mph - N/A   Scattered Clouds
8:51 AM 55.9 °F 35.1 °F 45% 30.30 in 8.0 mi SSW 13.8 mph - N/A   Scattered Clouds
9:51 AM 59.0 °F 36.0 °F 42% 30.30 in 9.0 mi SSW 13.8 mph 20.7 mph N/A   Scattered Clouds
10:51 AM 62.1 °F 36.0 °F 38% 30.29 in 9.0 mi SW 16.1 mph 26.5 mph N/A   Scattered Clouds
11:51 AM 64.0 °F 35.1 °F 34% 30.27 in 9.0 mi SSW 19.6 mph 28.8 mph N/A   Scattered Clouds
12:51 PM 66.9 °F 35.1 °F 31% 30.24 in 9.0 mi SW 21.9 mph 27.6 mph N/A   Mostly Cloudy
1:51 PM 66.0 °F 35.1 °F 32% 30.22 in 9.0 mi SW 15.0 mph 24.2 mph N/A   Mostly Cloudy
2:51 PM 66.0 °F 35.1 °F 32% 30.20 in 9.0 mi South 13.8 mph 21.9 mph N/A   Mostly Cloudy
3:51 PM 64.9 °F 36.0 °F 34% 30.19 in 9.0 mi South 9.2 mph - N/A   Mostly Cloudy
4:51 PM 62.1 °F 34.0 °F 35% 30.19 in 8.0 mi South 10.4 mph - N/A   Mostly Cloudy
5:51 PM 59.0 °F 34.0 °F 39% 30.20 in 9.0 mi South 10.4 mph - N/A   Mostly Cloudy
6:51 PM 57.0 °F 34.0 °F 42% 30.19 in 9.0 mi SSE 11.5 mph - N/A   Mostly Cloudy
7:51 PM 57.0 °F 33.1 °F 40% 30.18 in 9.0 mi SSE 10.4 mph - N/A   Overcast
8:51 PM 57.9 °F 32.0 °F 37% 30.17 in 10.0 mi SSE 11.5 mph - N/A   Overcast
9:51 PM 57.0 °F 32.0 °F 39% 30.15 in 10.0 mi SSE 9.2 mph - N/A   Overcast
10:51 PM 60.1 °F 30.0 °F 32% 30.13 in 10.0 mi South 16.1 mph - N/A   Overcast
11:51 PM 62.1 °F 32.0 °F 32% 30.12 in 10.0 mi South 16.1 mph - N/A   Overcast